This is the latest recevied weather packets stored in our database for station/object KB1JLI. If no packets are shown the sender has not sent any weather packets the latest 1 day(s).
| Time | Temp. | Humidity | Pressure | Rain* | Wind** | Luminosity | Snow |
|---|---|---|---|---|---|---|---|
| 1778073486 | 19.44° C | 72% | 1009.8 hPa | 0 mm | - | 189 W/m² | - |
| 1778072879 | 18.89° C | 74% | 1009.7 hPa | 0 mm | - | 176 W/m² | - |
| 1778071971 | 19.44° C | 73% | 1009.7 hPa | 0 mm | - | 196 W/m² | - |
| 1778071064 | 17.78° C | 77% | 1009.7 hPa | 0 mm | - | 278 W/m² | - |
| 1778070156 | 17.78° C | 76% | 1010.1 hPa | 0 mm | - | 120 W/m² | - |
| 1778069854 | 17.78° C | 76% | 1009.9 hPa | 0 mm | - | 185 W/m² | - |
| 1778069248 | 17.22° C | 78% | 1009.8 hPa | 0 mm | - | 127 W/m² | - |
| 1778067736 | 17.22° C | 78% | 1010 hPa | 0 mm | - | 114 W/m² | - |
| 1778066526 | 16.67° C | 79% | 1010 hPa | 0 mm | - | 85 W/m² | - |
| 1778066223 | 16.67° C | 79% | 1010.2 hPa | 0 mm | - | 135 W/m² | - |
| 1778065921 | 16.67° C | 80% | 1009.9 hPa | 0 mm | - | 97 W/m² | - |
| 1778065012 | 16.11° C | 81% | 1010.3 hPa | 0 mm | - | 53 W/m² | - |
| 1778064407 | 16.11° C | 82% | 1010 hPa | 0 mm | - | 25 W/m² | - |
| 1778064104 | 16.11° C | 81% | 1010.1 hPa | 0 mm | - | 21 W/m² | - |
| 1778063801 | 16.11° C | 81% | 1010.3 hPa | 0 mm | - | 22 W/m² | - |
| 1778063498 | 16.11° C | 81% | 1010.2 hPa | 0 mm | - | 19 W/m² | - |
| 1778063196 | 16.11° C | 81% | 1010.3 hPa | 0 mm | - | 15 W/m² | - |
| 1778062893 | 16.11° C | 81% | 1010.1 hPa | 0 mm | - | 15 W/m² | - |
| 1778061985 | 16.11° C | 80% | 1010 hPa | 0 mm | - | 21 W/m² | - |
| 1778060775 | 16.11° C | 80% | 1009.9 hPa | 0 mm | - | 9 W/m² | - |
| 1778060171 | 16.11° C | 79% | 1010.1 hPa | 0 mm | - | 4 W/m² | - |
| 1778059868 | 16.11° C | 79% | 1009.9 hPa | 0 mm | - | 2 W/m² | - |
| 1778058961 | 16.67° C | 78% | 1010.1 hPa | 0 mm | - | 0 W/m² | - |
| 1778058658 | 16.11° C | 78% | 1010 hPa | 0 mm | - | 0 W/m² | - |
| 1778057445 | 16.67° C | 77% | 1009.9 hPa | 0 mm | - | 0 W/m² | - |
* Rain latest hour (hover to see other rain measurements)
** Current wind speed in m/s (hover to see current wind gust speed)